Location: Delettes
(50.6178°N, 2.2123°E)
Time: 12:21:29
(UTC+00:00)

Cosmos 2279 Rocket - Visible Passes

Search period start: 10 July 2020 00:00
Search period end: 20 July 2020 00:00
Orbit: 963 x 980 km, 82.9° (Epoch: 09 July)

Date Brightness Start Highest point End Pass type
(mag) Time Alt. Az. Time Alt. Az. Time Alt. Az.
14 Jul 7.0 02:39:06 10° E 02:40:24 11° ENE 02:41:41 10° ENE visible
15 Jul 6.5 02:59:58 10° ESE 03:04:02 19° ENE 03:08:07 10° NE visible
18 Jul 6.5 02:28:15 10° ESE 02:31:36 15° ENE 02:34:58 10° NE visible
19 Jul 6.1 02:50:27 10° SE 02:55:21 25° E 03:00:14 10° NNE visible
